DECAYED

STARLINK-5713, 55578 (Decayed)

Orbit data source: Space-Track

STARLINK-5713, 55578 was a payload satellite owned by SpaceX/Seattle (US) in LEO that was launched on Sun, 12 Feb 2023 UTC via an FALCON 9 launch vehicle from the Air Force Eastern Test Range (AFETR). Payload-class satellites include a variety of spacecraft equipped with specific instruments for various scientific and technological missions. These include communications satellites like Starlink; space stations such as the ISS; scientific satellites like the Hubble; Earth observation satellites from companies like Planet Labs, Umbra, and HawkEye 360; GPS; miniature CubeSats for education and research; and military/defense satellites.

Not visible in the next 10 days
Identifier
55578, 2023-020K
Orbit
Decayed
Country
Flag of USUS
Related business
Manufacturer
SpaceX/Seattle
Mission
Decayed Commercial Communications
Bus & Motor
STARLINK, Unknown motor
Mass
305 kg wet, ~290 kg dry
Launch date (UTC)
2023-02-12 (4 years ago)
Launch vehicle
FALCON 9
Launch site
Air Force Eastern Test Range (AFETR)
Object type
Payload
Rocket body
Debris
Shape & HBR
Box + 1 Pan, 10.1 m
Radar Cross Section
13.562 m², Large (>1 m²)

Expand to show TLE details & history
Last TLE update: 1 year ago

TLE from 1 year ago
0 STARLINK-5713
1 55578U 23020K   25098.17935990  .86439731  94345-5  12758-2 0  9990
2 55578  42.9688 356.5512 0008029 231.9177 259.3951 16.48198943118800
Epoch: 2025-04-08T04:18Z
TLE epoch observation values (Epoch: 2025-04-08T04:18:16.695Z)
Latitude
30.96432°
Longitude
-124.52561°
Altitude
145.725 km
Speed
7.823 km/s
True Right ascension
09h 06m 54s
True Declination
30° 47' 55"
Sunlit
Object was in full shadow at epoch
Visualization orbit readout
Latitude
Unknown
Longitude
Unknown
Altitude
Unknown
Speed
Unknown
Apparent Right ascension
Unknown
Apparent Declination
Unknown
Sunlit
N/A
Visualization observer readout
Local Sidereal Time
04:03:02
Azimuth
Unknown
Elevation
Unknown
Doppler factor
Unknown
Orbital elements
Apogee altitude
151.372 km
Perigee altitude
140.896 km
Semi-major axis
6,524.271 km
Eccentricity
0.0008
Inclination
42.9688°
RAAN
356.5512°
Arg. of periapsis
231.9177°
True anomaly
259.30468°
Mean anomaly
259.3951°
Eccentric anomaly
259.34989°
Mean motion
4.11856 °/min
Orbital period
87.41 mins
BSTAR
0.0012758
Loading maneuver chart data...
Computing Atmospheric mass density...
Loading historical data...
Loading historical data...
Loading historical data...
Loading historical data...
Loading historical data...
Loading historical data...
Loading historical data...

Documentation

Showing up to 5 results
|